Wind_Speed
12 13 13 12 14 13 12 13 12 13 13 12 11 12 12 11 11 10 9 8 7 6 5 4 4 5 5 6 6 6 5 5 5 6 6 7 8 7 7 6 6 6 5 4 4 5 6 6 6
13 13 13 13 14 12 12 12 12 13 13 12 12 12 12 11 11 10 9 8 7 7 5 4 4 5 5 6 6 6 5 5 6 6 7 7 7 7 7 6 6 5 5 5 5 5 6 6 6
13 13 13 14 13 12 12 12 13 14 13 12 12 12 11 11 11 10 9 8 7 6 5 4 4 5 5 6 5 5 6 6 6 7 7 7 6 6 6 6 5 5 5 4 5 5 6 6 5
13 13 13 13 12 12 13 12 12 13 13 12 12 12 11 11 10 10 9 9 7 6 6 5 5 5 5 5 5 5 6 6 7 7 7 7 6 5 5 5 5 5 5 4 4 4 5 6 6
13 13 14 13 12 12 13 12 12 12 12 12 12 12 11 11 11 10 9 9 8 7 6 6 5 5 5 5 5 5 5 6 7 7 7 7 6 5 5 5 5 4 4 4 4 4 4 5 5
13 14 13 12 12 13 13 13 13 12 12 11 11 12 12 11 11 10 10 9 9 8 7 7 6 6 7 7 7 6 6 7 7 6 7 6 5 5 5 4 4 4 4 4 4 4 4 4 5
13 13 13 12 13 13 12 12 13 13 12 12 12 12 12 11 11 10 10 9 9 9 8 7 8 8 8 7 7 6 7 7 7 7 6 5 4 3 4 4 3 4 4 4 4 5 5 6 6
12 12 11 12 13 12 12 12 13 12 12 12 11 11 12 11 10 10 10 9 9 9 8 8 8 7 7 6 6 5 5 6 5 5 4 4 3 2 3 3 3 3 4 4 4 5 6 6 7
11 11 11 11 11 11 11 11 12 12 11 11 11 11 11 10 10 10 10 9 9 8 8 8 7 7 6 5 5 4 4 3 3 3 3 3 2 2 2 2 3 4 4 5 6 6 6 7 7
11 10 10 10 10 10 10 10 10 11 11 11 11 11 10 10 10 10 9 9 9 9 8 7 7 7 6 5 4 4 3 2 2 2 2 1 1 1 1 1 2 3 4 5 5 6 6 7 7
9 8 8 9 9 10 10 10 10 10 10 10 10 10 9 9 10 10 10 10 9 9 8 8 7 7 6 5 5 4 3 3 2 1 1 1 1 1 1 1 2 3 4 4 5 6 6 7 7
7 7 7 7 8 9 9 10 10 9 9 9 9 9 8 8 9 9 9 9 9 8 8 7 7 6 6 5 5 4 4 3 3 1 0 1 1 2 3 2 3 4 4 4 5 5 6 7 8
5 5 5 6 7 8 8 8 8 8 8 8 7 7 7 7 8 8 8 8 8 8 8 7 6 5 5 5 5 5 4 3 2 1 0 1 2 3 4 3 4 4 5 6 6 6 7 8 8
3 4 4 5 6 6 6 6 7 7 8 7 7 7 7 7 7 7 7 8 7 8 8 7 6 5 5 5 5 5 4 4 3 2 1 1 2 3 4 3 3 3 5 6 7 7 8 9 9
3 3 3 3 4 4 5 6 6 6 7 7 7 6 6 7 6 6 7 7 7 7 7 7 6 5 4 5 5 5 4 4 4 3 2 2 3 4 4 3 3 4 4 6 7 8 9 9 9
2 3 2 2 2 3 4 5 5 5 6 6 7 6 6 6 5 5 5 6 6 6 6 6 5 4 4 4 4 4 4 4 4 4 4 4 4 4 4 4 4 4 5 6 7 7 8 8 8
2 1 1 0 1 2 3 3 3 4 5 5 5 5 5 5 4 4 4 4 4 5 4 4 4 4 3 3 3 3 3 3 4 4 5 6 6 6 5 5 5 6 6 6 6 6 7 7 7
5 4 2 2 2 2 2 3 3 4 4 4 4 4 5 5 4 4 4 4 3 3 4 3 3 2 2 2 3 3 3 4 4 5 6 6 6 6 7 7 7 6 6 7 6 6 6 6 6
6 5 4 3 3 2 2 3 3 4 4 4 4 5 5 5 5 4 3 4 3 3 3 3 3 2 2 3 3 3 4 5 5 5 6 6 6 7 7 8 7 7 7 8 7 6 6 5 5
7 6 5 5 4 3 3 3 3 5 5 4 4 5 6 6 6 5 4 4 3 3 3 3 2 2 3 3 4 4 5 5 5 5 6 7 7 7 8 8 9 9 8 8 8 7 6 6 7
8 7 7 6 5 4 3 3 4 5 5 5 5 5 6 6 7 6 6 5 4 4 4 4 3 4 4 4 5 5 6 6 6 6 7 7 7 8 8 9 10 9 9 9 9 9 8 8 8
9 8 7 6 5 5 5 4 5 5 6 6 6 6 6 6 7 7 7 6 6 5 5 5 4 5 6 6 6 7 7 7 7 8 8 8 9 9 10 10 10 10 10 10 10 10 10 9 9
11 9 8 7 6 5 5 4 5 5 6 7 7 7 8 8 7 8 8 7 7 7 7 7 6 6 7 7 7 8 8 8 9 9 10 10 10 10 11 11 11 11 11 11 11 11 10 10 10
12 10 8 8 7 7 6 5 5 6 6 7 8 8 8 8 8 8 8 8 8 8 9 8 8 8 8 9 9 10 10 10 11 11 11 12 12 12 12 12 13 12 12 12 11 11 10 10 10
12 10 9 8 8 9 8 7 6 7 7 8 9 9 8 9 9 9 8 8 9 9 9 9 9 10 10 11 11 11 12 12 12 12 12 12 13 14 14 15 14 13 13 13 12 12 12 11 11
13 12 11 10 10 10 11 9 9 9 9 9 9 9 9 10 9 9 10 9 9 9 9 10 10 11 12 12 13 13 13 13 13 13 13 13 14 14 15 15 15 14 14 13 13 13 13 13 13
15 14 13 11 11 10 11 10 11 11 10 10 10 10 10 10 10 10 10 11 10 10 10 10 11 12 13 13 14 14 14 14 14 14 14 15 15 15 15 15 15 15 15 15 15 14 14 15 15
18 16 14 12 11 11 11 11 12 12 11 11 11 10 10 10 11 11 10 10 10 11 11 11 12 12 13 14 14 14 14 14 14 14 14 15 16 16 16 16 16 16 16 16 16 16 15 15 16
19 17 16 14 13 12 11 12 13 13 12 11 11 11 11 11 11 12 12 11 11 12 13 13 13 14 14 14 14 14 15 15 15 15 15 16 16 17 17 17 17 17 17 17 17 16 16 16 17
19 18 17 16 15 14 13 14 14 13 12 12 12 13 13 12 11 12 13 13 14 14 14 14 14 14 14 15 15 16 16 15 15 16 16 16 16 16 17 17 17 17 17 17 17 17 17 17 17
Wind_Direction
76 75 75 74 73 71 68 68 68 67 67 68 71 78 78 78 76 72 68 75 87 93 94 109 120 131 139 144 154 157 155 152 151 156 153 148 145 144 146 145 151 157 156 150 156 158 169 174 179
76 73 72 72 76 71 65 66 68 69 70 70 74 78 76 74 72 71 70 79 82 78 79 96 118 128 136 143 152 158 158 156 155 151 148 148 150 153 157 158 162 167 168 162 159 160 172 175 180
74 70 68 72 73 69 66 69 69 69 70 69 70 74 74 70 68 67 66 75 73 73 81 97 121 130 137 146 151 160 167 165 162 156 154 152 153 154 158 165 169 170 170 174 172 168 176 179 187
75 70 68 70 70 69 70 71 73 72 66 66 69 73 71 68 67 66 65 68 68 67 71 93 110 123 135 142 154 159 166 159 152 152 153 154 155 157 159 162 165 165 166 164 165 173 185 195 200
76 71 66 67 70 70 71 71 70 69 67 68 72 72 69 66 67 68 66 64 60 60 65 85 106 118 126 127 130 137 144 151 148 149 150 153 157 160 160 165 168 172 174 177 181 186 194 203 210
76 72 71 70 72 70 70 69 67 69 70 72 71 70 68 68 67 65 63 62 58 60 68 81 97 108 115 114 112 115 126 136 142 145 149 151 152 154 160 168 173 182 186 189 196 207 214 220 222
80 76 73 73 73 71 69 71 70 71 73 73 70 71 72 70 66 62 62 61 60 62 68 86 98 106 112 109 108 110 118 127 133 139 140 146 151 155 164 177 187 188 195 204 214 223 230 236 238
81 75 72 73 72 68 67 72 72 71 69 70 70 75 75 71 64 58 58 58 61 63 69 82 96 105 109 106 108 115 125 133 136 136 136 139 141 155 168 175 186 192 209 219 227 233 240 243 241
82 80 75 75 74 70 69 72 72 68 67 67 68 74 75 69 64 59 58 61 61 61 69 79 89 98 100 102 105 110 120 141 145 143 135 127 124 131 150 164 196 215 228 236 243 245 249 246 245
84 88 82 77 74 72 74 74 70 68 67 69 70 72 73 68 63 58 58 62 62 65 69 74 78 87 92 95 96 99 102 125 135 148 136 121 111 102 117 172 212 229 245 249 251 248 250 249 247
86 88 88 81 75 75 75 70 69 69 70 71 70 70 69 65 60 57 58 63 63 64 68 70 75 81 86 89 89 90 90 101 106 117 111 90 4 331 320 248 239 247 254 253 254 255 254 254 254
87 84 83 80 75 79 78 70 67 66 67 68 64 63 63 62 59 58 57 60 58 60 66 71 75 78 82 83 84 86 85 80 83 76 109 39 344 327 309 282 266 264 263 264 266 263 258 259 259
86 82 80 79 78 79 78 68 60 61 63 64 61 58 58 61 59 54 53 55 54 60 65 67 67 72 80 75 76 81 76 70 67 56 57 357 333 324 314 295 289 269 276 276 275 272 267 263 264
91 91 80 79 80 75 67 61 52 52 57 56 53 50 55 59 56 51 50 50 52 58 63 62 64 76 76 73 73 72 68 62 52 44 44 350 326 325 320 313 296 285 290 291 284 277 271 267 270
110 100 77 81 79 67 58 54 45 43 43 46 48 50 52 52 51 48 46 46 48 53 59 59 58 61 67 68 66 61 58 54 45 33 28 359 339 330 324 315 294 295 300 299 288 278 271 267 265
127 107 86 82 76 50 47 42 38 31 31 37 43 43 43 48 45 41 39 40 41 45 49 53 54 60 64 56 50 50 50 43 33 25 18 7 352 338 330 325 305 303 303 299 292 280 269 263 264
176 152 160 152 37 21 33 28 21 11 20 27 32 32 32 35 32 23 17 24 27 32 40 44 49 56 54 43 36 27 27 17 12 15 6 359 356 345 328 323 316 314 308 307 301 287 272 262 259
207 206 219 238 279 326 357 3 352 345 353 4 15 20 20 16 6 360 358 1 8 18 24 28 35 39 35 28 25 21 11 354 350 357 354 349 347 343 333 319 318 314 313 315 307 288 275 263 257
212 225 242 253 275 290 317 334 326 312 333 348 354 357 358 359 357 350 348 345 347 352 358 4 9 11 8 8 4 360 355 352 346 340 343 344 342 338 332 329 322 309 308 310 304 296 276 274 275
221 234 247 260 272 279 292 308 314 304 314 327 335 343 348 348 343 345 337 334 332 330 327 331 335 339 341 340 340 342 340 338 333 331 335 337 336 337 335 331 327 322 318 306 304 308 299 290 284
225 233 240 253 271 290 301 305 299 299 300 309 318 324 328 329 331 334 334 329 325 319 315 317 325 322 319 320 325 329 331 331 327 326 327 329 329 330 329 325 323 321 321 316 315 311 306 296 286
223 232 239 249 268 289 300 308 299 293 293 298 313 320 324 320 319 322 324 320 314 305 301 303 306 313 315 318 320 321 322 325 324 322 319 318 319 320 319 321 325 322 315 310 306 303 296 295 292
222 230 236 245 259 276 286 289 290 287 293 295 305 316 319 317 314 313 314 314 308 298 296 295 297 305 309 315 320 319 321 320 317 318 319 320 322 322 319 320 321 320 315 310 305 302 296 294 292
227 232 243 249 255 265 269 271 280 284 292 295 299 308 313 314 310 310 308 309 307 297 292 290 291 299 303 310 312 309 313 314 316 316 317 317 316 316 316 315 314 314 313 310 306 304 300 296 292
228 232 246 255 255 258 263 266 268 277 290 296 297 300 301 305 307 304 304 303 302 298 293 291 293 298 304 307 307 306 310 309 311 313 313 314 312 311 313 313 312 313 314 313 307 302 300 298 294
230 229 232 244 252 263 266 265 272 280 284 291 294 293 295 297 296 296 297 296 295 295 295 292 294 298 301 303 305 306 307 307 308 310 311 311 312 313 314 314 313 312 312 312 307 304 301 297 293
230 234 234 245 250 255 264 272 278 281 283 287 291 292 296 296 295 298 293 290 292 293 296 293 293 295 299 300 300 303 304 305 306 307 308 307 308 311 312 312 313 312 311 311 307 303 300 297 292
234 237 240 241 248 253 262 271 276 280 282 282 285 289 294 292 292 293 288 287 294 292 293 295 295 294 295 296 295 299 304 304 305 306 305 307 307 308 310 311 311 311 310 310 308 306 305 301 294
238 238 239 241 243 248 261 270 275 280 279 280 285 284 288 289 289 288 285 291 293 296 293 293 294 292 292 294 297 299 303 303 304 306 306 307 308 309 309 309 308 308 309 309 307 309 307 305 301
239 240 242 245 248 250 255 266 273 277 275 278 282 283 282 283 284 287 289 291 293 293 292 291 292 294 295 297 299 299 299 300 302 305 307 307 308 310 310 310 309 308 308 308 306 307 305 304 302
Height
5894 5894 5893 5894 5893 5893 5892 5891 5889 5888 5887 5885 5884 5883 5883 5882 5882 5884 5881 5878 5878 5878 5877 5877 5877 5877 5878 5878 5879 5879 5879 5879 5879 5880 5880 5881 5881 5882 5883 5883 5883 5883 5883 5882 5880 5879 5881 5883 5885
5896 5895 5896 5895 5895 5895 5894 5892 5890 5889 5888 5886 5885 5884 5884 5883 5882 5882 5880 5879 5879 5878 5878 5878 5877 5877 5878 5878 5879 5879 5879 5879 5880 5880 5881 5881 5882 5882 5883 5883 5883 5883 5883 5883 5882 5882 5883 5884 5885
5898 5897 5898 5897 5897 5896 5895 5893 5892 5890 5889 5887 5887 5886 5885 5884 5883 5882 5881 5880 5880 5879 5878 5878 5877 5877 5878 5878 5878 5879 5879 5879 5880 5880 5881 5881 5882 5882 5882 5883 5883 5883 5883 5883 5883 5883 5884 5885 5885
5899 5900 5900 5900 5898 5897 5896 5895 5893 5891 5890 5889 5888 5887 5886 5885 5884 5883 5882 5881 5880 5879 5878 5877 5877 5877 5878 5878 5878 5878 5878 5878 5879 5880 5881 5881 5882 5882 5883 5883 5883 5883 5883 5883 5883 5883 5884 5885 5885
5901 5901 5902 5901 5900 5899 5897 5896 5894 5893 5892 5890 5889 5888 5887 5886 5885 5884 5883 5882 5881 5879 5878 5876 5877 5877 5877 5878 5878 5878 5877 5877 5879 5880 5881 5881 5882 5882 5882 5883 5883 5883 5883 5883 5883 5884 5884 5884 5885
5904 5903 5904 5903 5902 5900 5899 5897 5896 5895 5893 5892 5891 5890 5889 5888 5886 5886 5884 5883 5881 5879 5878 5877 5877 5877 5878 5878 5878 5878 5877 5877 5879 5880 5881 5881 5882 5882 5882 5882 5882 5882 5882 5883 5883 5883 5883 5884 5884
5906 5905 5905 5905 5903 5902 5901 5899 5897 5896 5895 5894 5893 5892 5890 5889 5888 5887 5885 5884 5882 5881 5879 5877 5877 5878 5879 5879 5879 5879 5879 5879 5880 5880 5881 5881 5882 5882 5882 5882 5882 5882 5882 5882 5882 5882 5882 5883 5883
5907 5908 5907 5906 5905 5904 5902 5900 5899 5898 5897 5896 5895 5893 5892 5892 5890 5888 5887 5885 5884 5882 5881 5879 5879 5879 5880 5880 5880 5880 5880 5880 5881 5881 5881 5881 5881 5881 5881 5881 5881 5881 5881 5881 5881 5881 5881 5881 5882
5908 5910 5909 5908 5906 5905 5904 5902 5901 5900 5898 5897 5896 5895 5894 5893 5892 5890 5889 5887 5885 5884 5883 5882 5881 5881 5881 5881 5881 5881 5881 5881 5881 5881 5881 5881 5881 5881 5880 5880 5880 5880 5880 5880 5880 5880 5880 5880 5880
5910 5911 5910 5909 5907 5906 5905 5904 5903 5901 5900 5899 5898 5897 5896 5894 5893 5892 5890 5889 5887 5886 5885 5884 5883 5883 5882 5882 5882 5882 5882 5881 5881 5881 5881 5881 5880 5880 5880 5879 5879 5879 5879 5878 5878 5878 5878 5878 5877
5912 5912 5911 5910 5909 5908 5906 5906 5904 5903 5902 5901 5900 5899 5897 5896 5895 5893 5892 5890 5889 5887 5886 5886 5885 5884 5884 5883 5883 5882 5882 5882 5882 5882 5881 5881 5880 5879 5878 5878 5878 5878 5877 5877 5877 5876 5876 5876 5876
5913 5912 5911 5911 5910 5909 5908 5907 5906 5905 5904 5903 5901 5900 5899 5897 5896 5895 5894 5892 5890 5889 5888 5887 5886 5885 5885 5884 5884 5883 5883 5882 5882 5881 5881 5880 5879 5878 5877 5876 5876 5876 5876 5875 5875 5874 5874 5874 5874
5914 5913 5913 5912 5911 5911 5910 5909 5908 5907 5905 5904 5903 5901 5900 5899 5898 5896 5895 5894 5892 5890 5889 5888 5887 5887 5886 5886 5885 5884 5883 5883 5882 5881 5881 5880 5879 5877 5876 5875 5874 5874 5874 5873 5873 5872 5872 5871 5871
5914 5914 5913 5913 5913 5912 5911 5911 5910 5908 5907 5905 5904 5903 5901 5900 5899 5898 5897 5895 5894 5892 5890 5890 5889 5888 5887 5887 5886 5885 5884 5883 5883 5882 5881 5880 5879 5877 5875 5874 5873 5873 5872 5872 5871 5870 5869 5869 5868
5915 5915 5915 5914 5913 5913 5913 5912 5911 5909 5908 5907 5905 5904 5902 5901 5900 5899 5898 5896 5895 5893 5892 5891 5890 5889 5888 5888 5887 5886 5885 5884 5883 5882 5881 5880 5878 5877 5875 5874 5873 5872 5871 5870 5868 5867 5867 5866 5866
5915 5916 5916 5915 5914 5914 5915 5914 5912 5910 5909 5907 5906 5905 5903 5902 5901 5900 5898 5897 5896 5895 5893 5892 5891 5890 5889 5889 5888 5887 5885 5884 5883 5882 5881 5879 5878 5876 5875 5873 5872 5871 5870 5868 5866 5865 5864 5863 5864
5916 5917 5916 5916 5915 5914 5914 5914 5912 5911 5909 5908 5907 5906 5904 5903 5902 5900 5899 5898 5897 5896 5894 5893 5892 5891 5890 5889 5888 5887 5886 5885 5883 5882 5881 5879 5878 5876 5875 5873 5871 5870 5868 5867 5865 5863 5862 5862 5862
5916 5916 5916 5916 5915 5914 5914 5913 5912 5910 5909 5908 5907 5906 5905 5904 5902 5901 5900 5898 5897 5896 5895 5894 5893 5892 5891 5890 5889 5888 5886 5885 5884 5882 5881 5879 5878 5876 5874 5873 5871 5869 5867 5865 5863 5862 5860 5860 5860
5914 5915 5915 5915 5915 5914 5914 5913 5912 5910 5909 5908 5907 5906 5905 5904 5902 5901 5900 5899 5898 5896 5895 5894 5893 5892 5891 5890 5889 5888 5886 5885 5883 5882 5881 5879 5877 5876 5874 5872 5870 5868 5867 5865 5863 5861 5860 5859 5859
5913 5914 5914 5914 5914 5914 5913 5912 5911 5910 5909 5908 5907 5906 5905 5904 5902 5901 5900 5898 5897 5897 5895 5894 5893 5892 5891 5890 5889 5887 5886 5884 5883 5882 5880 5879 5877 5875 5873 5872 5869 5867 5865 5864 5862 5860 5859 5858 5858
5911 5912 5913 5913 5913 5913 5913 5912 5911 5910 5908 5908 5907 5906 5905 5903 5902 5901 5899 5898 5897 5896 5895 5894 5893 5892 5890 5889 5888 5887 5886 5884 5882 5881 5879 5878 5876 5874 5872 5870 5869 5866 5864 5863 5861 5860 5858 5857 5856
5909 5910 5911 5912 5912 5912 5912 5912 5910 5909 5908 5907 5906 5905 5904 5902 5901 5900 5899 5898 5897 5896 5894 5893 5892 5891 5890 5889 5887 5886 5884 5883 5881 5880 5878 5877 5875 5873 5871 5869 5867 5865 5863 5861 5860 5858 5857 5856 5855
5907 5908 5909 5910 5910 5911 5911 5911 5911 5908 5907 5906 5905 5904 5903 5901 5900 5899 5898 5896 5895 5894 5893 5892 5891 5890 5889 5888 5886 5885 5883 5882 5880 5878 5877 5875 5873 5872 5869 5867 5865 5864 5862 5860 5858 5856 5855 5854 5853
5904 5906 5907 5908 5909 5910 5909 5909 5909 5907 5906 5905 5904 5902 5901 5900 5899 5897 5896 5895 5894 5893 5892 5891 5890 5889 5888 5886 5885 5884 5882 5880 5879 5877 5875 5874 5872 5870 5868 5865 5863 5861 5859 5858 5856 5854 5853 5851 5850
5902 5905 5907 5908 5908 5908 5907 5907 5907 5905 5904 5903 5902 5901 5899 5898 5897 5895 5894 5893 5892 5891 5890 5889 5888 5887 5886 5885 5883 5882 5880 5878 5877 5875 5873 5871 5870 5868 5865 5863 5861 5859 5857 5855 5853 5852 5850 5849 5848
5899 5903 5906 5907 5907 5906 5904 5904 5905 5903 5902 5901 5900 5898 5897 5896 5895 5893 5892 5891 5890 5889 5888 5887 5886 5885 5884 5882 5881 5880 5878 5876 5874 5873 5871 5869 5867 5865 5863 5861 5859 5856 5855 5853 5851 5849 5848 5846 5845
5896 5898 5901 5902 5902 5903 5902 5901 5901 5900 5899 5898 5897 5896 5895 5894 5893 5891 5890 5888 5887 5886 5885 5884 5883 5882 5881 5880 5878 5877 5876 5874 5872 5870 5868 5866 5864 5862 5860 5858 5856 5854 5852 5850 5848 5846 5845 5843 5842
5893 5894 5896 5898 5899 5900 5900 5899 5899 5897 5896 5896 5895 5894 5892 5891 5890 5889 5887 5886 5885 5884 5883 5882 5881 5879 5878 5877 5875 5874 5873 5871 5869 5867 5865 5863 5861 5859 5857 5855 5853 5851 5848 5847 5845 5843 5841 5839 5838
5888 5890 5891 5893 5895 5897 5898 5898 5895 5893 5893 5892 5892 5891 5890 5889 5888 5886 5885 5884 5883 5881 5880 5879 5878 5877 5875 5874 5872 5871 5869 5868 5866 5863 5861 5859 5857 5855 5853 5851 5849 5847 5845 5843 5841 5839 5837 5836 5834
5883 5885 5887 5890 5890 5891 5893 5896 5890 5890 5890 5889 5889 5888 5887 5886 5885 5884 5882 5881 5880 5879 5877 5876 5875 5874 5872 5871 5869 5868 5866 5864 5862 5860 5858 5856 5854 5852 5849 5847 5845 5843 5841 5839 5837 5835 5833 5831 5829